[[{"header":{"parameterUnit":"m.s-1","parameterCategory":1,"la1":30.2991,"la2":30.254,"lo1":-89.0895,"lo2":-89.0444,"dy":0.0017,"dx":0.0017,"nx":28,"ny":28,"refTime":"2025-09-13T21:00:00:Z","depth":0,"parameterNumber":2,"parameterNumberName":"U-component_of_WINDS"},"data":[0,0,0,0,0,0,0,0,0,0,0,0,0,0,0,0,0,0,0,0,0,0,0,0,0,0,0,0,0,0,0,0,0,0,0,0,0,0,0,0,0,0,0,0,0,0,0,0,0,0,0,0,0,0,0,0,0,0,0.0979,0.0979,0,0.0966,0.0966,0.0966,0.0927,0.0926,0.0925,0.0924,0.0912,0.0913,0.0913,0,0,0,0,0,0,0,0,0,0,0,0,0,0.0971,0.0972,0.0979,0.0979,0.0979,0.0966,0.0966,0.0966,0.0927,0.0926,0.0925,0.0924,0.0912,0.0913,0.0913,0,0,0,0,0,0,0,0,0,0,0,0,0,0.0968,0.0972,0.0979,0.0958,0.0956,0.0966,0.0966,0.0965,0.0927,0.0926,0.0925,0.0924,0.0912,0.0913,0.0913,0.0943,0,0,0.0916,0.0916,0,0,0,0,0,0,0,0,0.0968,0.0968,0.0961,0.0959,0.0957,0.0947,0.0958,0.0958,0.0928,0.0938,0.0924,0.0923,0.0925,0.0925,0.0925,0.0943,0.0942,0.0916,0.0916,0.0916,0.0917,0,0,0,0,0,0,0,0.0969,0.0969,0.0974,0.0961,0.0959,0.0949,0.0947,0.0958,0.0939,0.0937,0.0934,0.0933,0.0924,0.0924,0.0924,0.0942,0.0916,0.0916,0.0917,0.0917,0.0982,0.0983,0,0,0,0,0,0,0.0972,0.0969,0.0974,0.0973,0.096,0.095,0.0948,0.0951,0.0939,0.0936,0.0934,0.0932,0.0924,0.0924,0.0924,0.0957,0.0916,0.0917,0.0917,0.0981,0.0982,0.0984,0,0,0,0,0,0,0.0972,0.0973,0.0975,0.0971,0.097,0.0952,0.0956,0.0952,0.0952,0.0937,0.0933,0.0939,0.0923,0.0923,0.0938,0.0956,0.0917,0.0918,0.0979,0.0981,0.0983,0.1024,0,0,0,0,0,0,0.0972,0.0973,0.0984,0.0971,0.097,0.099,0.0957,0.0952,0.0954,0.095,0.094,0.0937,0.0922,0.0937,0.0939,0.0956,0.0919,0.0978,0.098,0.0982,0.1021,0.1027,0.1032,0,0,0,0,0,0.0972,0.0997,0.0985,0.0986,0.0984,0.0991,0.099,0.0972,0.0955,0.0966,0.0956,0.0937,0.0954,0.0939,0.0941,0.0958,0.0976,0.0979,0.0982,0.1018,0.1026,0.1032,0,0,0,0,0,0,0.1013,0.0995,0.0981,0.1003,0.0998,0.0984,0.0998,0.0981,0.0982,0.0978,0.0956,0.0954,0.0973,0.0967,0.0951,0.0986,0.0962,0.0965,0.0989,0.0996,0.1001,0.1002,0.0919,0,0,0,0,0,0.1024,0.1031,0.1015,0.1035,0.1034,0.1016,0.1018,0.1005,0.1,0.0998,0.0988,0.0984,0.0988,0.0992,0.0995,0.102,0.1017,0.1033,0.1038,0.1043,0.1046,0.1058,0.1064,0.0993,0.0993,0.0993,0,0,0.1049,0.1039,0.1045,0.1043,0.1038,0.1046,0.1015,0.1024,0.103,0.0999,0.1013,0.1006,0.1,0.102,0.1028,0.1016,0.1065,0.1047,0.1051,0.1051,0.1061,0.1068,0.1074,0.0995,0.0995,0.0995,0,0,0.1096,0.109,0.1106,0.1101,0.1094,0.1081,0.1085,0.1073,0.1067,0.108,0.1057,0.1063,0.1071,0.1067,0.1067,0.1111,0.1094,0.1113,0.1143,0.1154,0.116,0.1165,0.118,0.1186,0.1116,0.1116,0.1116,0,0.1127,0.1137,0.1116,0.1127,0.1126,0.1098,0.1114,0.1111,0.1105,0.1105,0.1091,0.11,0.1094,0.1112,0.1123,0.1123,0.1127,0.1114,0.1161,0.1165,0.1169,0.1184,0.119,0.1119,0.1118,0.1118,0.1118,0,0.1175,0.1182,0.1196,0.119,0.1191,0.1204,0.1185,0.1189,0.1175,0.1164,0.1178,0.1169,0.117,0.1173,0.116,0.1189,0.1181,0.1165,0.114,0.1179,0.1192,0.1197,0.1122,0.1121,0.112,0.112,0,0,0.1249,0.123,0.1236,0.1232,0.1221,0.1226,0.1238,0.1237,0.1241,0.1237,0.1246,0.1253,0.1236,0.1236,0.1222,0.1232,0.1267,0.1213,0.1213,0.1223,0.1297,0.131,0.1316,0.1255,0.1256,0.1257,0.1297,0,0.1293,0.1311,0.1292,0.1315,0.132,0.1293,0.1303,0.1297,0.1288,0.1291,0.128,0.1285,0.1263,0.1263,0.1271,0.1261,0.1281,0.1257,0.1263,0.1263,0.1265,0.1323,0.1337,0.1376,0.1302,0.1303,0.1304,0,0.1347,0.1345,0.1368,0.1354,0.1356,0.1365,0.1362,0.1366,0.1359,0.1351,0.1349,0.1332,0.1342,0.1318,0.1331,0.1316,0.1317,0.1311,0.1313,0.1312,0.1286,0.1324,0.1388,0.1394,0.1312,0.1311,0.1311,0,0.1398,0.1401,0.1415,0.1412,0.1397,0.1404,0.1398,0.1389,0.139,0.1388,0.1388,0.1387,0.1387,0.1387,0.1369,0.1354,0.1385,0.136,0.1378,0.1379,0.1386,0.1385,0.145,0.1387,0.1387,0.1387,0.1387,0,0.1449,0.1464,0.1437,0.1445,0.146,0.1438,0.1454,0.1446,0.1438,0.1444,0.1421,0.1427,0.1404,0.1407,0.1394,0.1407,0.1407,0.1401,0.1397,0.1402,0.1403,0.1402,0.1399,0.1389,0.1388,0.1388,0.1388,0,0.1509,0.1491,0.1504,0.1488,0.1484,0.1496,0.1482,0.1489,0.1477,0.1485,0.1485,0.1467,0.147,0.1452,0.1453,0.1443,0.1462,0.1454,0.1465,0.1462,0.1481,0.1479,0.1547,0.1555,0.1488,0.1489,0.1489,0,0.1542,0.1553,0.1537,0.1539,0.1534,0.1538,0.1537,0.1516,0.1517,0.1509,0.1517,0.1517,0.1517,0.1523,0.151,0.1509,0.1501,0.1524,0.15,0.1505,0.15,0.1499,0.15,0.1529,0.153,0.1531,0.1532,0,0.1604,0.1594,0.1595,0.1592,0.1592,0.1589,0.1585,0.1588,0.1565,0.1567,0.1569,0.1569,0.1568,0.1569,0.1566,0.1559,0.1542,0.1539,0.1543,0.1549,0.1554,0.1551,0.1478,0.1538,0.1537,0.1537,0.1536,0.1536,0.1651,0.1658,0.1648,0.1649,0.1643,0.1639,0.1644,0.1632,0.1634,0.1631,0.1618,0.1623,0.1614,0.1608,0.1603,0.1606,0.1595,0.1601,0.1602,0.1604,0.1607,0.1554,0.1606,0.1605,0.1605,0.1605,0.1605,0,0.171,0.1702,0.1703,0.1697,0.1697,0.168,0.1673,0.1675,0.1679,0.1672,0.1672,0.1674,0.1674,0.1661,0.1659,0.1664,0.1656,0.1665,0.1664,0.1663,0.1618,0.1614,0.1671,0.1671,0.1671,0.1671,0.1671,0.1671,0.1741,0.1752,0.1741,0.1749,0.1741,0.1744,0.1742,0.1738,0.1732,0.1735,0.1735,0.1726,0.1716,0.1714,0.1713,0.1709,0.1709,0.1721,0.1714,0.1672,0.1666,0.166,0.1656,0.1721,0.1721,0.1758,0.1758,0.1759]},{"header":{"parameterUnit":"m.s-1","parameterCategory":1,"la1":30.2991,"la2":30.254,"lo1":-89.0895,"lo2":-89.0444,"dy":0.0017,"dx":0.0017,"nx":28,"ny":28,"refTime":"2025-09-13T21:00:00:Z","depth":0,"parameterNumber":3,"parameterNumberName":"V-component_of_WINDS"},"data":[0,0,0,0,0,0,0,0,0,0,0,0,0,0,0,0,0,0,0,0,0,0,0,0,0,0,0,0,0,0,0,0,0,0,0,0,0,0,0,0,0,0,0,0,0,0,0,0,0,0,0,0,0,0,0,0,0,0,-1.0765,-1.0766,0,-1.0836,-1.0836,-1.0837,-1.0873,-1.0873,-1.0873,-1.0873,-1.0946,-1.0948,-1.0949,0,0,0,0,0,0,0,0,0,0,0,0,0,-1.0661,-1.0662,-1.0765,-1.0766,-1.0767,-1.0836,-1.0837,-1.0837,-1.0873,-1.0873,-1.0873,-1.0873,-1.0945,-1.0947,-1.095,0,0,0,0,0,0,0,0,0,0,0,0,0,-1.0716,-1.0663,-1.0765,-1.0792,-1.0796,-1.0835,-1.0837,-1.0838,-1.0873,-1.0873,-1.0873,-1.0873,-1.0944,-1.0947,-1.095,-1.0967,0,0,-1.0959,-1.096,0,0,0,0,0,0,0,0,-1.0713,-1.072,-1.0787,-1.0791,-1.0794,-1.0845,-1.0827,-1.0881,-1.0873,-1.0844,-1.0873,-1.0873,-1.0912,-1.0918,-1.0931,-1.0971,-1.0974,-1.0959,-1.0961,-1.0962,-1.0963,0,0,0,0,0,0,0,-1.0709,-1.0717,-1.0793,-1.0788,-1.0793,-1.0802,-1.0809,-1.0837,-1.0877,-1.0846,-1.0849,-1.0857,-1.0914,-1.0928,-1.0933,-1.0975,-1.0959,-1.0962,-1.0963,-1.0964,-1.1033,-1.1033,0,0,0,0,0,0,-1.07,-1.0713,-1.0791,-1.0795,-1.0753,-1.0803,-1.0812,-1.0829,-1.0877,-1.0884,-1.0857,-1.0858,-1.0923,-1.093,-1.0936,-1.096,-1.0962,-1.0965,-1.0966,-1.1033,-1.1033,-1.1033,0,0,0,0,0,0,-1.0698,-1.0707,-1.0788,-1.0755,-1.0766,-1.0805,-1.0824,-1.083,-1.0844,-1.0885,-1.0892,-1.0864,-1.0924,-1.0932,-1.0959,-1.0963,-1.0966,-1.0969,-1.1033,-1.1033,-1.1033,-1.1007,0,0,0,0,0,0,-1.0695,-1.0706,-1.0713,-1.0755,-1.0768,-1.081,-1.0824,-1.0832,-1.0849,-1.0852,-1.0893,-1.09,-1.0924,-1.0955,-1.0962,-1.0967,-1.0971,-1.1033,-1.1033,-1.1033,-1.1008,-1.1006,-1.1005,0,0,0,0,0,-1.0691,-1.0703,-1.0713,-1.0722,-1.0777,-1.081,-1.0817,-1.0845,-1.0849,-1.0857,-1.0883,-1.0899,-1.0961,-1.0957,-1.0966,-1.0971,-1.1033,-1.1033,-1.1033,-1.1008,-1.1007,-1.1005,0,0,0,0,0,0,-1.066,-1.0709,-1.0721,-1.0746,-1.0774,-1.0816,-1.0826,-1.0842,-1.0869,-1.087,-1.0903,-1.0912,-1.0937,-1.0957,-1.0952,-1.0991,-1.0998,-1.1,-1.0977,-1.0975,-1.0974,-1.0969,-1.0973,0,0,0,0,0,-1.0656,-1.0679,-1.072,-1.0739,-1.0752,-1.0786,-1.0802,-1.0821,-1.085,-1.0862,-1.089,-1.0919,-1.0945,-1.0961,-1.0987,-1.1011,-1.1021,-1.1019,-1.1017,-1.1016,-1.1017,-1.1032,-1.1031,-1.1034,-1.1034,-1.1034,0,0,-1.0648,-1.0678,-1.069,-1.0733,-1.0757,-1.0779,-1.0796,-1.0819,-1.0837,-1.0866,-1.0894,-1.0915,-1.0949,-1.0975,-1.0988,-1.0992,-1.1019,-1.1016,-1.1015,-1.1017,-1.1032,-1.1031,-1.1031,-1.1034,-1.1034,-1.1034,0,0,-1.0646,-1.067,-1.0688,-1.0712,-1.0747,-1.077,-1.0774,-1.0814,-1.083,-1.0858,-1.0881,-1.0902,-1.0946,-1.0969,-1.0987,-1.0993,-1.1009,-1.1001,-1.0993,-1.1007,-1.1007,-1.1007,-1.1009,-1.101,-1.1002,-1.1002,-1.1002,0,-1.0632,-1.0667,-1.0696,-1.0718,-1.0736,-1.0764,-1.0783,-1.0804,-1.0846,-1.0858,-1.0863,-1.0919,-1.0944,-1.0975,-1.0977,-1.099,-1.0996,-1.0996,-1.1004,-1.1005,-1.1005,-1.1008,-1.1009,-1.1001,-1.1001,-1.1001,-1.1001,0,-1.0648,-1.0672,-1.0682,-1.0722,-1.0742,-1.0762,-1.0794,-1.0811,-1.0828,-1.085,-1.0879,-1.091,-1.0943,-1.0952,-1.0969,-1.0986,-1.0988,-1.0998,-1.1006,-1.1003,-1.1006,-1.1008,-1.0999,-1.0999,-1.1,-1.1,0,0,-1.0627,-1.0683,-1.0686,-1.0705,-1.0746,-1.0765,-1.0787,-1.0819,-1.0833,-1.0861,-1.088,-1.0917,-1.0927,-1.0947,-1.0967,-1.0979,-1.0982,-1.0988,-1.0989,-1.0986,-1.1003,-1.0995,-1.0996,-1.0993,-1.0993,-1.0993,-1.1,0,-1.063,-1.0671,-1.0697,-1.0727,-1.075,-1.0776,-1.0795,-1.0823,-1.0844,-1.0867,-1.0891,-1.0917,-1.0928,-1.094,-1.0953,-1.0979,-1.0986,-1.0979,-1.1011,-1.1012,-1.1002,-1.0998,-1.0989,-1.0995,-1.1002,-1.1002,-1.1002,0,-1.0639,-1.0667,-1.0699,-1.0738,-1.0748,-1.0765,-1.0797,-1.0818,-1.085,-1.0865,-1.0887,-1.0907,-1.0932,-1.0938,-1.0972,-1.0966,-1.0981,-1.0996,-1.0997,-1.1001,-1.1007,-1.1002,-1.0997,-1.0998,-1.1004,-1.1004,-1.1004,0,-1.0621,-1.0666,-1.0691,-1.0706,-1.0752,-1.0763,-1.0783,-1.0815,-1.0833,-1.0861,-1.0873,-1.0903,-1.092,-1.0943,-1.0971,-1.0973,-1.1002,-1.101,-1.1015,-1.1015,-1.102,-1.102,-1.1018,-1.103,-1.103,-1.103,-1.103,0,-1.0622,-1.0641,-1.0684,-1.0699,-1.0721,-1.0752,-1.0772,-1.0794,-1.0822,-1.0842,-1.0867,-1.0886,-1.0922,-1.0945,-1.0967,-1.0992,-1.0999,-1.1012,-1.1018,-1.101,-1.1008,-1.102,-1.1021,-1.103,-1.103,-1.103,-1.103,0,-1.0606,-1.0635,-1.0664,-1.0706,-1.0716,-1.073,-1.0766,-1.0782,-1.0805,-1.083,-1.0838,-1.0875,-1.0903,-1.0933,-1.0972,-1.0987,-1.1011,-1.1019,-1.1,-1.1003,-1.1006,-1.1006,-1.1012,-1.1015,-1.1025,-1.1024,-1.1024,0,-1.0604,-1.0619,-1.0662,-1.0677,-1.0696,-1.0721,-1.0739,-1.077,-1.0788,-1.0826,-1.0837,-1.0867,-1.0893,-1.0937,-1.0967,-1.0997,-1.1006,-1.1006,-1.1011,-1.1002,-1.1006,-1.1005,-1.1007,-1.1005,-1.1004,-1.1004,-1.1004,0,-1.0598,-1.0612,-1.0638,-1.0668,-1.0689,-1.0715,-1.0741,-1.0753,-1.0789,-1.0808,-1.0838,-1.0857,-1.0897,-1.0927,-1.096,-1.0981,-1.0999,-1.1003,-1.1005,-1.0997,-1.0986,-1.0992,-1.0996,-1.1002,-1.1002,-1.1003,-1.1003,-1.1003,-1.0589,-1.0604,-1.0636,-1.0664,-1.0687,-1.0711,-1.0729,-1.0754,-1.0779,-1.0814,-1.0831,-1.086,-1.0892,-1.0939,-1.0959,-1.0982,-1.0988,-1.0992,-1.0993,-1.0993,-1.0991,-1.0982,-1.0989,-1.0989,-1.0989,-1.0989,-1.0989,0,-1.0585,-1.0607,-1.0632,-1.0668,-1.069,-1.0705,-1.0735,-1.0753,-1.0778,-1.0806,-1.0831,-1.0865,-1.0894,-1.0927,-1.0958,-1.0971,-1.0979,-1.0978,-1.0977,-1.0982,-1.0984,-1.0979,-1.097,-1.097,-1.097,-1.097,-1.097,-1.097,-1.0585,-1.061,-1.0628,-1.0666,-1.0688,-1.0717,-1.0733,-1.0756,-1.0778,-1.0815,-1.0839,-1.086,-1.0891,-1.0924,-1.0952,-1.0961,-1.0971,-1.0967,-1.0978,-1.098,-1.0981,-1.0983,-1.0978,-1.0969,-1.0969,-1.0973,-1.0973,-1.0973]}]]